Wetbulb
25.26 24.63 24.40 24.09 23.85 23.72 23.82 24.28 24.77 24.43 24.54 24.70 25.15 25.05 25.00 25.16 24.87 24.94 25.38 25.32 26.72 29.48
24.61 24.16 23.20 22.97 23.45 23.30 23.89 25.84 24.46 24.10 23.72 23.87 24.21 24.51 23.96 23.41 23.30 23.54 24.31 24.44 25.64 26.12
24.13 23.75 23.37 23.58 23.33 23.30 23.92 24.48 24.48 24.08 23.69 23.41 23.46 23.18 22.81 22.68 23.04 22.59 22.90 24.00 23.40 24.24
24.40 23.73 23.78 23.54 23.14 23.18 23.31 23.50 23.81 24.09 23.60 23.22 22.77 22.61 21.60 21.48 22.04 21.73 22.09 22.39 22.71 23.40
24.52 24.23 23.32 22.71 22.93 23.21 22.90 23.48 23.36 23.54 22.82 22.35 22.21 22.09 21.48 21.04 21.29 21.05 21.17 21.80 22.24 22.42
24.17 23.19 22.56 22.39 22.69 22.81 22.22 21.63 21.55 20.91 20.00 19.99 20.25 20.25 20.41 20.67 21.23 21.53 21.83 22.13 22.05 22.28
23.11 22.55 21.66 21.79 21.36 20.45 20.07 18.73 18.13 18.19 18.19 18.26 18.30 18.75 19.77 20.34 19.80 19.57 20.26 20.92 21.38 21.81
22.63 21.48 20.64 19.33 18.39 17.86 17.76 17.33 16.96 16.53 16.15 16.42 16.77 19.42 18.74 18.99 18.67 18.31 18.20 18.73 19.23 19.86
20.39 19.87 18.08 17.36 16.71 16.33 15.69 14.71 14.60 14.11 13.46 12.77 15.59 18.62 20.40 20.54 18.06 17.42 16.44 15.57 16.51 17.19
16.80 15.85 15.26 14.75 14.25 13.43 12.29 12.43 11.69 11.56 11.54 10.90 11.52 17.28 19.67 19.91 17.20 16.21 15.59 14.94 14.94 15.44
14.91 12.73 12.76 11.79 10.74 10.55 10.41 9.70 9.31 9.34 8.98 9.63 10.88 16.27 17.71 18.58 16.31 14.61 14.34 14.35 14.48 14.37
12.38 9.55 9.77 5.91 7.19 8.06 7.49 7.19 6.02 8.86 6.60 6.06 6.71 13.44 16.47 16.72 14.50 13.95 13.43 14.29 14.64 14.73
11.31 5.64 4.73 7.07 5.35 5.70 3.13 7.12 7.36 7.02 6.08 5.49 4.23 11.04 14.81 16.22 14.40 11.90 12.68 13.46 14.74 17.62
9.05 4.96 4.14 2.86 3.68 0.72 0.57 4.15 0.96 2.59 3.26 3.31 4.85 5.72 14.14 17.07 15.70 14.12 13.59 14.64 15.16 16.10
MSLP
1029.46 1029.63 1029.77 1029.81 1030.03 1030.11 1030.14 1030.05 1030.00 1030.05 1029.72 1029.63 1029.30 1028.96 1028.94 1028.92 1028.63 1028.44 1028.25 1028.06 1027.76 1027.36
1029.72 1029.73 1029.99 1030.18 1030.05 1030.20 1030.03 1029.90 1030.02 1029.93 1029.83 1029.72 1029.48 1029.25 1029.22 1029.05 1028.85 1028.71 1028.37 1027.99 1027.63 1027.34
1029.92 1030.07 1030.10 1030.11 1030.21 1030.20 1030.04 1030.01 1029.88 1029.79 1029.72 1029.48 1029.36 1029.28 1029.21 1029.04 1028.57 1028.49 1028.31 1027.73 1027.32 1027.02
1029.65 1029.79 1029.97 1030.26 1030.41 1030.47 1030.41 1030.29 1030.10 1029.93 1029.74 1029.59 1029.37 1029.23 1029.16 1029.14 1028.50 1028.19 1027.87 1027.54 1027.18 1026.76
1029.56 1029.79 1029.98 1030.27 1030.26 1030.37 1030.43 1030.35 1030.29 1030.03 1029.79 1029.62 1029.43 1029.15 1029.00 1028.71 1028.42 1028.17 1027.57 1027.16 1026.78 1026.26
1029.66 1029.90 1030.05 1030.09 1030.23 1030.36 1030.34 1030.35 1030.30 1030.11 1029.89 1029.74 1029.53 1029.17 1028.85 1028.59 1028.20 1027.69 1027.19 1026.77 1026.36 1025.75
1029.71 1029.88 1030.01 1030.14 1030.29 1030.29 1030.30 1030.34 1030.30 1030.18 1030.03 1029.87 1029.58 1029.16 1028.64 1028.26 1027.85 1027.38 1026.93 1026.57 1026.11 1025.58
1029.69 1029.89 1030.07 1030.18 1030.34 1030.37 1030.37 1030.37 1030.32 1030.09 1030.04 1029.84 1029.53 1028.76 1028.53 1028.11 1027.59 1027.19 1026.68 1026.37 1025.98 1025.43
1029.63 1029.87 1029.97 1030.18 1030.38 1030.42 1030.40 1030.39 1030.29 1030.14 1030.00 1029.76 1029.36 1028.98 1028.45 1027.85 1027.33 1026.93 1026.52 1025.94 1025.53 1025.16
1029.58 1029.78 1030.01 1030.36 1030.54 1030.56 1030.47 1030.35 1030.23 1030.14 1029.98 1029.74 1029.50 1028.75 1028.06 1027.59 1027.09 1026.57 1026.16 1025.76 1025.17 1024.54
1029.55 1029.74 1030.06 1030.40 1030.54 1030.53 1030.45 1030.40 1030.33 1030.21 1030.07 1029.69 1029.27 1028.48 1027.88 1027.17 1026.60 1026.22 1025.84 1025.37 1024.80 1024.10
1029.18 1029.58 1029.96 1030.40 1030.53 1030.57 1030.58 1030.55 1030.42 1030.13 1029.88 1029.65 1029.20 1028.52 1027.55 1026.80 1026.16 1025.60 1025.17 1024.69 1023.99 1023.25
1029.15 1029.57 1030.03 1030.35 1030.64 1030.78 1030.82 1030.49 1030.25 1029.96 1029.87 1029.54 1028.94 1028.25 1027.27 1026.34 1025.47 1024.75 1024.16 1023.53 1022.73 1022.19
1029.21 1029.66 1030.04 1030.39 1030.68 1030.79 1030.70 1030.49 1030.32 1029.86 1029.46 1029.14 1028.68 1027.76 1026.64 1025.54 1024.46 1023.74 1022.88 1022.17 1021.49 1020.85
Wind_Speed
7 4 4 5 4 4 4 4 5 5 6 6 6 5 6 4 4 6 5 7 5 5
5 6 6 5 4 3 3 3 5 5 6 6 6 6 6 4 5 5 4 5 5 4
6 6 5 4 6 6 6 6 6 6 6 5 5 5 5 5 5 5 5 5 6 6
5 6 6 5 5 5 4 5 6 6 6 6 6 6 5 6 7 8 8 6 6 9
4 4 5 4 5 5 5 5 5 5 5 5 6 6 7 10 8 8 10 10 9 10
3 3 3 4 4 4 4 4 5 5 6 7 8 8 8 9 9 10 11 12 12 12
4 3 2 3 3 3 4 4 5 5 6 7 8 10 8 10 12 12 12 13 13 14
4 3 3 3 2 3 3 4 5 7 6 7 8 8 12 12 13 13 14 13 13 13
3 3 3 3 4 3 4 4 5 6 7 8 8 18 19 18 13 14 14 14 13 13
4 3 3 2 2 4 4 5 6 6 7 9 9 18 22 23 12 13 13 14 14 14
4 3 2 1 2 3 3 5 7 7 8 9 9 21 22 23 13 12 13 13 14 14
3 3 2 2 3 3 4 5 6 7 7 8 11 20 22 20 12 12 13 13 14 14
3 3 1 2 3 1 3 7 7 8 8 10 12 19 21 18 10 11 10 12 14 20
3 2 1 1 1 2 4 7 6 9 8 9 11 13 21 21 12 10 11 10 9 10
Wind_Direction
71 75 78 72 72 54 46 32 15 14 19 15 15 15 8 3 356 354 348 340 330 316
95 82 82 77 78 77 66 33 20 17 14 7 5 5 0 353 339 331 316 305 302 299
90 84 81 68 46 34 23 15 11 9 7 1 358 351 351 335 324 322 316 311 310 301
95 73 64 58 42 28 17 12 11 2 357 353 349 344 335 323 315 318 309 301 289 297
103 76 61 43 26 18 11 2 346 345 345 337 336 334 327 321 316 305 306 306 302 296
120 94 65 39 24 14 355 346 352 359 351 341 335 328 318 304 304 304 303 304 302 302
171 128 84 60 39 21 3 359 358 354 344 339 332 323 315 323 317 310 304 303 302 301
166 130 101 74 38 12 17 8 351 341 338 335 329 327 327 318 310 308 306 307 304 300
137 136 91 52 19 3 358 352 341 339 330 327 325 322 318 317 311 308 305 304 304 298
146 110 68 31 3 350 341 336 335 330 325 317 313 316 318 316 308 303 301 302 302 300
156 115 115 81 357 339 342 338 325 317 308 306 310 314 315 313 310 302 296 293 294 292
125 89 37 360 343 336 327 317 301 302 311 303 299 308 310 314 303 298 291 289 285 283
119 114 15 341 328 277 296 301 309 302 299 290 291 301 306 311 297 294 290 283 283 282
112 101 320 290 273 284 299 300 292 291 288 277 277 284 303 306 301 293 287 286 287 279